Waarnemingen

Advertentie
Mijn weer
Norderney, Duitsland (10113): temperatuur & dauwpunt: 18.05.2017 04:00:00 - 24.05.2017 04:00:00 (CEST)Norderney, Duitsland (10113): temperatuur 5cm & temperatuur -5cm: 18.05.2017 04:00:00 - 24.05.2017 04:00:00 (CEST)Norderney, Duitsland (10113): temperatuur -20cm & temperatuur -100cm: 18.05.2017 04:00:00 - 24.05.2017 04:00:00 (CEST)Norderney, Duitsland (10113): windsnelheid & windstoten: 18.05.2017 04:00:00 - 24.05.2017 04:00:00 (CEST)Norderney, Duitsland (10113): windrichting: 18.05.2017 04:00:00 - 24.05.2017 04:00:00 (CEST)Norderney, Duitsland (10113): luchtdruk: 18.05.2017 04:00:00 - 24.05.2017 04:00:00 (CEST)Norderney, Duitsland (10113): zicht: 18.05.2017 04:00:00 - 24.05.2017 04:00:00 (CEST)Norderney, Duitsland (10113): Zonneschijnduur: 18.05.2017 04:00:00 - 24.05.2017 04:00:00 (CEST)Norderney, Duitsland (10113): neerslag: 18.05.2017 04:00:00 - 24.05.2017 04:00:00 (CEST)
Datum & Tijd tt [°C] td [°C] tt 5cm [°C] tt -5cm [°C] tt -20cm [°C] tt -100cm [°C] ff [km/u] ff [kn] fx [km/u] fx [kn] dd ppp [hPa] vv [km] sd [min] rr [mm]
24.05.2017 04:00:00 11,7 9,3 10,4 15,0 17,2 14,0 27 15 35 19 NW 1021,6 32 0 0,0
24.05.2017 03:00:00 11,9 8,6 10,5 15,4 17,5 14,0 31 17 38 20 NW 1021,4 38 0 0,0
24.05.2017 02:00:00 12,0 9,4 10,7 15,8 17,9 14,0 31 17 36 19 WNW 1021,3 30 0 0,0
24.05.2017 01:00:00 11,9 9,5 10,9 16,4 18,3 13,9 32 17 38 20 WNW 1021,4 27 0 0,0
24.05.2017 00:00:00 11,9 9,1 11,1 16,9 18,7 13,9 27 15 34 18 WNW 1021,5 27 0 0,0
23.05.2017 23:00:00 12,0 9,3 11,1 17,7 19,2 13,9 29 16 36 20 WNW 1021,2 24 0 0,0
23.05.2017 22:00:00 12,1 9,8 11,1 18,6 19,6 13,9 29 16 37 20 WNW 1020,9 23 0 0,0
23.05.2017 21:00:00 12,2 9,5 11,5 19,8 20,0 13,9 32 17 42 23 WNW 1020,3 25 35 0,0
23.05.2017 20:00:00 12,8 9,3 13,5 21,3 20,2 13,9 31 17 41 22 WNW 1019,9 11 60 0,0
23.05.2017 19:00:00 12,7 9,8 14,1 22,4 20,3 13,9 38 21 45 24 WNW 1019,4 21 57 0,0
23.05.2017 18:00:00 13,4 9,9 16,5 23,4 20,2 13,9 38 20 44 24 WNW 1018,8 11 58 0,0
23.05.2017 17:00:00 14,0 10,3 17,7 24,0 19,9 13,9 34 19 46 25 NW 1018,3 12 60 0,0
23.05.2017 16:00:00 14,1 10,5 18,8 23,8 19,6 13,8 37 20 48 26 NW 1017,9 11 58 0,0
23.05.2017 15:00:00 14,9 11,2 18,8 23,2 19,3 13,8 36 19 43 23 NW 1017,0 13 29 0,0
23.05.2017 14:00:00 14,4 11,4 18,9 23,2 18,9 13,8 35 19 40 22 WNW 1016,3 10 33 0,0
23.05.2017 13:00:00 15,0 11,6 18,3 23,2 18,4 13,8 27 15 44 24 WNW 1015,8 10 33 0,0
23.05.2017 12:00:00 19,2 8,2 24,2 22,3 17,8 13,8 8 5 22 12 WZW 1014,5 18 59 0,0
23.05.2017 11:00:00 16,8 11,5 20,7 20,6 17,3 13,8 13 7 27 15 W 1014,6 11 59 0,0
23.05.2017 10:00:00 17,0 11,5 19,9 19,0 17,0 13,7 15 8 24 13 W 1014,4 15 53 0,0
23.05.2017 09:00:00 17,0 11,9 18,7 17,3 17,0 13,7 12 7 20 11 ZW 1014,0 14 41 0,0
23.05.2017 08:00:00 16,4 11,0 17,7 16,4 17,1 13,7 13 7 23 13 Z 1013,8 19 46 0,0
23.05.2017 07:00:00 15,4 10,7 14,9 16,1 17,3 13,7 13 7 19 10 ZZO 1013,8 21 19 0,0
23.05.2017 06:00:00 14,8 10,1 13,8 16,1 17,5 13,7 14 8 26 14 ZZO 1013,8 18 0 0,0
23.05.2017 05:00:00 15,3 10,0 14,3 16,4 17,8 13,6 17 9 24 13 ZZO 1013,9 20 0 0,0
23.05.2017 04:00:00 15,6 10,2 14,5 16,7 18,1 13,6 15 8 21 11 ZZO 1014,4 23 0 0,0
23.05.2017 03:00:00 15,3 10,1 13,8 17,1 18,5 13,6 12 7 23 12 ZO 1014,8 21 0 0,0
23.05.2017 02:00:00 16,0 9,8 14,5 17,6 18,9 13,6 14 8 24 13 ZO 1015,3 26 0 0,0
23.05.2017 01:00:00 15,3 10,5 14,1 18,3 19,2 13,6 12 7 21 11 ZO 1015,7 21 0 0,0
23.05.2017 00:00:00 15,5 11,3 14,5 18,9 19,7 13,6 11 6 21 11 ZO 1016,2 19 0 0,0
22.05.2017 23:00:00 16,3 12,1 15,2 19,7 20,1 13,6 14 7 25 13 OZO 1016,7 21 0 0,0
22.05.2017 22:00:00 16,1 11,0 15,3 20,6 20,5 13,6 15 8 29 16 O 1016,7 36 0 0,0
22.05.2017 21:00:00 16,4 7,4 15,7 22,0 20,9 13,6 15 8 33 18 O 1017,0 48 0 0,0
22.05.2017 20:00:00 16,4 8,8 16,4 23,6 21,1 13,5 21 11 34 18 ONO 1017,4 41 58 0,0
22.05.2017 19:00:00 17,4 9,2 18,7 25,2 21,0 13,5 23 13 34 18 ONO 1017,7 18 60 0,0
22.05.2017 18:00:00 17,6 11,3 20,0 26,2 20,8 13,5 23 12 29 16 ONO 1018,3 14 60 0,0
22.05.2017 17:00:00 17,8 11,1 20,5 27,1 20,3 13,5 23 12 30 16 ONO 1018,9 15 60 0,0
22.05.2017 16:00:00 18,3 11,9 22,1 27,1 19,6 13,5 23 12 29 16 NO 1019,4 11 60 0,0
22.05.2017 15:00:00 18,6 12,4 23,3 26,5 18,7 13,5 21 12 27 15 NO 1020,0 11 60 0,0
22.05.2017 14:00:00 18,9 13,1 22,8 25,6 17,8 13,5 22 12 26 14 NO 1020,3 12 60 0,0
22.05.2017 13:00:00 18,2 13,0 22,8 23,9 16,8 13,5 18 10 24 13 NO 1020,9 12 56 0,0
22.05.2017 12:00:00 17,9 12,4 23,1 21,8 16,0 13,5 9 5 19 10 NO 1021,4 24 60 0,0
22.05.2017 11:00:00 18,3 10,5 23,4 19,2 15,3 13,5 11 6 18 10 OZO 1021,8 18 60 0,0
22.05.2017 10:00:00 16,0 10,1 19,5 16,7 14,9 13,5 11 6 19 11 ZO 1021,9 12 60 0,0
22.05.2017 09:00:00 14,7 9,1 17,0 14,6 14,7 13,5 14 7 23 13 ZO 1022,1 17 60 0,0
22.05.2017 08:00:00 14,1 8,6 14,8 13,3 14,8 13,5 13 7 23 12 OZO 1022,7 38 60 0,0
22.05.2017 07:00:00 12,5 8,4 11,2 12,8 15,1 13,5 12 6 21 11 OZO 1022,9 43 43 0,0
22.05.2017 06:00:00 11,7 8,2 10,0 12,9 15,4 13,5 12 6 18 10 OZO 1023,2 46 0 0,0
22.05.2017 05:00:00 10,9 7,9 9,1 13,3 15,8 13,5 9 5 19 10 ZO 1023,4 33 0 0,0
22.05.2017 04:00:00 11,3 7,8 9,7 13,7 16,1 13,4 11 6 16 9 ZO 1023,9 44 0 0,0
22.05.2017 03:00:00 11,5 7,9 9,5 14,2 16,5 13,4 10 5 16 9 OZO 1024,3 40 0 0,0
22.05.2017 02:00:00 11,3 9,3 9,7 14,8 17,0 13,4 10 5 18 10 ZO 1024,7 13 0 0,0
22.05.2017 01:00:00 11,9 10,1 10,2 15,4 17,4 13,4 10 6 16 9 ZO 1024,9 19 0 0,0
22.05.2017 00:00:00 11,8 9,5 10,0 16,1 18,0 13,4 10 6 16 8 OZO 1025,2 31 0 0,0
21.05.2017 23:00:00 11,7 9,0 9,9 17,1 18,5 13,4 10 5 16 9 O 1025,4 34 0 0,0
21.05.2017 22:00:00 11,9 9,6 10,3 18,5 19,0 13,4 8 5 15 8 OZO 1025,6 31 17 0,0
21.05.2017 21:00:00 13,1 9,8 12,1 20,1 19,3 13,4 11 6 16 9 ONO 1025,8 52 60 0,0
21.05.2017 20:00:00 13,9 10,2 14,4 22,0 19,4 13,4 13 7 16 9 NO 1026,0 30 60 0,0
21.05.2017 19:00:00 13,6 10,1 16,9 23,3 19,3 13,4 11 6 14 7 NNO 1026,1 21 60 0,0
21.05.2017 18:00:00 14,0 10,0 19,3 23,8 19,0 13,5 11 6 16 9 N 1026,5 28 59 0,0
21.05.2017 17:00:00 14,4 10,8 20,2 24,1 18,5 13,5 14 8 18 10 NNW 1027,0 25 43 0,0
21.05.2017 16:00:00 14,9 9,8 22,6 24,4 17,9 13,5 14 8 20 11 NNW 1027,3 19 60 0,0
21.05.2017 15:00:00 15,7 9,5 22,0 22,7 17,3 13,5 17 9 21 11 NW 1027,3 18 28 0,0
21.05.2017 14:00:00 14,7 10,4 19,0 23,4 16,5 13,5 13 7 23 12 NNW 1027,4 23 51 0,0
21.05.2017 13:00:00 16,9 8,7 21,7 21,8 15,6 13,5 12 6 22 12 ZW 1027,3 18 60 0,0
21.05.2017 12:00:00 16,2 9,4 20,8 19,4 14,9 13,5 14 8 23 12 ZW 1027,4 21 60 0,0
21.05.2017 11:00:00 15,5 8,7 18,9 17,7 14,2 13,5 16 9 26 14 ZW 1027,2 23 60 0,0
21.05.2017 10:00:00 14,8 9,1 17,9 15,7 13,8 13,5 16 8 25 14 ZW 1026,8 22 60 0,0
21.05.2017 09:00:00 14,0 9,6 16,1 13,6 13,6 13,5 12 7 21 12 ZW 1026,4 12 60 0,0
21.05.2017 08:00:00 13,0 9,0 13,8 12,1 13,6 13,5 15 8 26 14 ZW 1026,1 16 60 0,0
21.05.2017 07:00:00 12,0 8,5 10,8 11,5 13,8 13,5 14 7 26 14 Z 1025,6 13 59 0,0
21.05.2017 06:00:00 11,6 8,3 10,0 11,6 14,1 13,5 12 6 19 10 Z 1025,3 14 0 0,0
21.05.2017 05:00:00 11,5 8,5 9,8 11,9 14,4 13,5 10 5 17 9 Z 1025,3 13 0 0,0
21.05.2017 04:00:00 11,6 8,6 10,1 12,2 14,7 13,5 12 7 20 11 Z 1025,3 12 0 0,0
21.05.2017 03:00:00 11,4 8,7 9,5 12,5 15,0 13,5 11 6 18 10 ZZO 1025,3 11 0 0,0
21.05.2017 02:00:00 11,7 9,6 9,8 13,0 15,4 13,5 11 6 16 9 ZZO 1025,3 9 0 0,0
21.05.2017 01:00:00 11,9 10,3 10,1 13,5 15,8 13,5 9 5 13 7 ZZO 1025,1 7 0 0,0
21.05.2017 00:00:00 12,1 10,1 10,2 14,0 16,2 13,5 10 5 14 8 OZO 1024,7 7 0 0,0
20.05.2017 23:00:00 12,0 9,7 10,0 14,7 16,7 13,5 8 5 12 6 ZO 1024,5 13 0 0,0
20.05.2017 22:00:00 12,3 9,8 8,8 15,8 17,1 13,5 2 1 14 8 ONO 1024,3 28 4 0,0
20.05.2017 21:00:00 13,2 9,7 12,0 17,1 17,4 13,5 10 5 15 8 ONO 1023,7 53 58 0,0
20.05.2017 20:00:00 14,3 6,7 14,1 18,6 17,5 13,5 7 4 10 6 Z 1023,2 70 59 0,0
20.05.2017 19:00:00 14,0 8,9 16,7 19,2 17,5 13,5 5 3 19 10 WNW 1022,7 35 57 0,0
20.05.2017 18:00:00 12,8 9,5 13,3 19,1 17,6 13,5 21 12 37 20 W 1022,8 24 6 0,0
20.05.2017 17:00:00 12,9 9,2 12,7 20,2 17,4 13,6 13 7 19 11 W 1022,2 13 8 0,3
20.05.2017 16:00:00 15,0 9,7 21,0 20,4 17,2 13,6 8 4 14 8 NNW 1021,5 20 25 0,0
20.05.2017 15:00:00 13,8 9,4 16,7 20,3 16,9 13,6 12 7 19 10 NNW 1020,8 16 25 0,0
20.05.2017 14:00:00 13,9 10,5 16,8 20,0 16,5 13,6 16 9 25 13 NW 1020,1 12 15 0,4
20.05.2017 13:00:00 16,0 8,9 21,0 21,2 15,7 13,6 13 7 25 14 ZW 1019,7 20 56 0,0
20.05.2017 12:00:00 14,6 8,0 18,2 19,5 15,0 13,6 18 10 29 16 ZW 1019,2 26 53 0,0
20.05.2017 11:00:00 14,5 8,8 17,9 17,5 14,4 13,6 18 10 30 16 ZW 1018,5 12 56 0,0
20.05.2017 10:00:00 13,8 9,3 16,8 15,4 14,1 13,6 18 10 31 17 ZW 1017,8 16 56 0,0
20.05.2017 09:00:00 12,7 8,9 14,4 13,8 14,0 13,6 19 11 30 16 ZW 1017,0 14 58 0,0
20.05.2017 08:00:00 12,2 9,1 12,5 12,7 14,0 13,6 15 8 28 15 ZW 1016,4 12 46 0,0
20.05.2017 07:00:00 11,7 8,9 10,5 12,5 14,2 13,6 14 8 29 16 WZW 1015,5 12 3 0,0
20.05.2017 06:00:00 12,0 9,0 11,1 12,7 14,4 13,6 17 9 26 14 ZW 1014,8 15 0 0,0
20.05.2017 05:00:00 11,9 8,8 10,8 12,9 14,6 13,6 16 9 27 15 WZW 1014,6 32 0 0,0
20.05.2017 04:00:00 12,0 9,3 11,0 13,1 14,8 13,6 16 9 27 15 WZW 1014,3 27 0 0,0
20.05.2017 03:00:00 12,0 9,4 11,0 13,3 15,0 13,6 16 8 27 15 ZW 1013,9 25 0 0,0
20.05.2017 02:00:00 12,1 9,3 11,0 13,5 15,2 13,6 20 11 35 19 ZW 1013,7 29 0 0,0
20.05.2017 01:00:00 12,1 9,8 11,0 13,7 15,4 13,6 17 9 29 16 WZW 1013,7 29 0 0,0
20.05.2017 00:00:00 12,3 9,6 11,0 14,0 15,7 13,6 18 10 28 15 ZW 1013,9 34 0 0,0
19.05.2017 23:00:00 12,2 10,0 11,1 14,2 16,0 13,6 15 8 31 17 ZW 1013,1 29 0 0,6
19.05.2017 22:00:00 11,9 9,9 11,1 14,6 16,3 13,6 16 9 26 14 ZW 1013,2 10 0 3,3
19.05.2017 21:00:00 12,3 10,1 11,3 15,3 16,5 13,6 14 8 28 15 WZW 1012,3 14 0 0,2
19.05.2017 20:00:00 12,6 9,8 11,4 15,9 16,8 13,6 18 10 35 19 WZW 1012,3 14 0 0,2
19.05.2017 19:00:00 12,8 10,0 11,9 16,5 17,0 13,6 17 9 29 16 WZW 1012,1 16 0 0,3
19.05.2017 18:00:00 13,4 10,3 12,1 17,2 17,2 13,6 16 9 27 14 WZW 1011,8 8 0 0,8
19.05.2017 17:00:00 13,8 10,9 13,8 18,0 17,3 13,6 6 3 24 13 W 1011,7 19 0 0,0
19.05.2017 16:00:00 14,4 9,7 14,7 18,7 17,2 13,6 21 11 31 17 WZW 1011,0 34 0 0,0
19.05.2017 15:00:00 15,0 9,8 16,0 19,2 17,1 13,6 17 9 37 20 WZW 1010,2 39 0 0,0
19.05.2017 14:00:00 14,8 10,5 15,8 19,0 16,9 13,6 22 12 37 20 ZW 1010,2 20 0 0,0
19.05.2017 13:00:00 15,4 11,1 16,8 18,7 16,6 13,6 22 12 38 21 ZW 1010,1 16 0 0,0
19.05.2017 12:00:00 17,9 13,5 19,2 18,7 16,3 13,6 22 12 37 20 ZZW 1008,8 24 4 0,0
19.05.2017 11:00:00 17,1 14,3 20,7 17,7 16,0 13,6 16 9 32 17 Z 1008,3 6 26 0,0
19.05.2017 10:00:00 15,7 14,2 17,1 16,5 15,9 13,6 18 10 28 15 ZZO 1008,3 6 0 0,0
19.05.2017 09:00:00 14,8 13,5 15,4 16,0 15,9 13,6 14 7 35 19 ZZO 1008,4 6 4 0,0
19.05.2017 08:00:00 13,9 12,6 14,5 15,4 15,9 13,6 18 10 32 18 O 1007,8 8 1 0,0
19.05.2017 07:00:00 13,0 12,4 13,4 15,0 16,0 13,6 16 9 28 15 OZO 1008,4 7 0 0,0
19.05.2017 06:00:00 12,4 12,0 12,4 15,0 16,1 13,6 12 7 29 15 O 1008,7 8 0 0,0
19.05.2017 05:00:00 12,0 11,6 12,0 15,1 16,3 13,5 16 9 27 15 O 1009,3 6 0 0,0
19.05.2017 04:00:00 11,7 11,2 11,7 15,2 16,5 13,5 13 7 29 15 O 1010,1 6 0 0,0
19.05.2017 03:00:00 11,3 10,6 11,4 15,3 16,7 13,5 22 12 30 16 ONO 1010,3 19 0 0,0
19.05.2017 02:00:00 11,0 10,3 11,1 15,5 17,0 13,5 21 12 31 17 ONO 1011,0 22 0 0,0
19.05.2017 01:00:00 10,8 10,4 11,0 15,8 17,2 13,5 24 13 29 16 NO 1011,8 28 0 0,0
19.05.2017 00:00:00 10,6 10,4 10,9 16,2 17,5 13,5 21 12 28 15 NO 1012,5 31 0 0,0
18.05.2017 23:00:00 10,3 10,2 10,6 16,6 17,8 13,5 19 10 22 12 NNO 1012,6 2,4 0 0,0
18.05.2017 22:00:00 10,1 10,1 10,4 17,3 18,1 13,5 16 9 22 12 NNO 1012,8 0,7 0 0,0
18.05.2017 21:00:00 10,0 9,7 10,5 18,1 18,3 13,4 17 9 24 13 NNO 1013,0 0,9 0 0,0
18.05.2017 20:00:00 10,4 10,0 11,6 18,9 18,5 13,4 15 8 22 12 N 1013,0 5 0 0,0
18.05.2017 19:00:00 11,0 10,4 12,7 19,6 18,5 13,4 17 9 21 11 NNO 1013,2 19 0 0,0
18.05.2017 18:00:00 11,4 10,5 15,2 19,6 18,5 13,4 17 9 22 12 NNW 1013,4 15 0 0,0
18.05.2017 17:00:00 11,9 10,8 15,4 19,7 18,5 13,4 15 8 22 12 NNW 1013,3 19 0 0,0
18.05.2017 16:00:00 12,0 10,7 14,3 20,0 18,5 13,3 13 7 24 13 NW 1013,8 28 0 0,0
18.05.2017 15:00:00 12,4 10,8 15,4 20,0 18,4 13,3 21 11 29 16 NW 1013,6 24 0 0,0
18.05.2017 14:00:00 12,1 10,9 14,4 20,1 18,3 13,3 26 14 33 18 WNW 1013,3 17 2 0,0
18.05.2017 13:00:00 13,1 11,3 17,3 19,4 18,2 13,3 24 13 35 19 WNW 1012,6 19 6 0,0
18.05.2017 12:00:00 13,6 12,4 15,4 18,6 18,3 13,3 24 13 42 23 W 1012,1 33 1 0,0
18.05.2017 11:00:00 13,0 12,0 13,4 18,8 18,3 13,2 31 17 44 24 W 1011,4 7 0 0,2
18.05.2017 10:00:00 13,9 12,2 14,7 19,6 18,3 13,2 22 12 36 19 W 1010,1 7 13 0,0
18.05.2017 09:00:00 17,4 14,0 19,4 18,8 18,3 13,2 23 13 38 20 ZW 1009,3 5 14 0,0
18.05.2017 08:00:00 19,0 14,0 19,0 18,5 18,3 13,1 19 10 34 18 ZZW 1008,0 32 3 0,0
18.05.2017 07:00:00 18,6 13,7 18,4 18,3 18,5 13,1 19 11 32 17 Z 1007,3 32 19 0,0
18.05.2017 06:00:00 18,8 13,6 18,1 18,3 18,7 13,1 21 12 37 20 Z 1007,2 42 0 0,0
18.05.2017 05:00:00 19,1 13,7 18,2 18,6 18,9 13,1 23 12 37 20 ZZO 1007,2 43 0 0,0
18.05.2017 04:00:00 20,1 13,9 19,1 18,9 19,2 13,1 26 14 39 21 ZZO 1007,5 44 0 0,0

tt = temperatuur
td = dauwpunt
tt 5cm = temperatuur 5cm
tt -5cm = temperatuur -5cm
tt -20cm = temperatuur -20cm
tt -100cm = temperatuur -100cm
ff = windsnelheid
fx = windstoten
dd = windrichting
ppp = luchtdruk
vv = zicht
sd = Zonneschijnduur
rr = neerslag

Weerstations in de omgeving